Weather History for Altus AFB, OK

Change the Weather History Date:

Saturday, March 1, 2014

  Actual Average Record
Temperature  
Mean Temperature 34 °F -  
Max Temperature 44 °F 57 °F 91 °F (2006)
Min Temperature 22 °F 31 °F 19 °F (2002)
Degree Days  
Heating Degree Days 32    
Moisture  
Dew Point 34 °F    
Average Humidity 96    
Maximum Humidity 100    
Minimum Humidity 78    
Precipitation  
Precipitation 0.00 in - - ()
Sea Level Pressure  
Sea Level Pressure 30.02 in    
Wind  
Wind Speed 15 mph (NNE)    
Max Wind Speed 30 mph    
Max Gust Speed 38 mph    
Visibility 7 miles    
Events Rain , Snow    
Averages and records for this station are not official NWS values.
T = Trace of Precipitation, MM = Missing Value Source: NWS Daily Summary

Daily Weather History Graph

Daily Weather History Graph

Search for Another Location

Airport:

Trip Planner

Search our weather history database for the weather conditions in past years. The results will help you decide how hot, cold, wet, or windy it might be!

Date:

Astronomy

Mar. 01, 2014 Rise Set
Actual Time 7:06 AM CST 6:33 PM CST
Civil Twilight 6:40 AM CST 6:58 PM CST
Nautical Twilight 6:11 AM CST 7:27 PM CST
Astronomical Twilight 5:42 AM CST 7:56 PM CST
Moon 7:03 AM CST 7:18 PM CST
Length of Visible Light 12h 17m
Length of Day
11h 26m
New Moon, 0% of the Moon is Illuminated
Mar 1
New Moon
Mar 8
First Quarter
Mar 16
Full
Mar 23
Last Quarter
Mar 30
New

Hourly Weather History & Observations

Time (CST) Temp. Windchill Dew Point Humidity Pressure Visibility Wind Dir Wind Speed Gust Speed Precip Events Conditions
12:58 AM 44.1 °F 38.1 °F 37.8 °F 78% 29.85 in 10.0 mi NNE 11.5 mph - N/A   Clear
1:58 AM 41.7 °F 36.7 °F 37.6 °F 85% 29.88 in 10.0 mi NNE 8.1 mph - N/A   Clear
2:58 AM 41.2 °F 35.5 °F 39.2 °F 93% 29.87 in 10.0 mi NNE 9.2 mph - N/A   Clear
3:48 AM 39.2 °F 33.6 °F 39.2 °F 100% 29.90 in 10.0 mi NNE 8.1 mph - N/A   Clear
3:53 AM 39.2 °F 33.0 °F 39.2 °F 100% 29.90 in 10.0 mi NNE 9.2 mph - N/A   Clear
3:58 AM 39.9 °F 33.9 °F 39.6 °F 99% 29.90 in 10.0 mi NNE 9.2 mph - N/A   Clear
4:58 AM 39.7 °F 33.2 °F 39.0 °F 97% 29.93 in 10.0 mi NE 10.4 mph - N/A   Clear
5:48 AM 37.4 °F 30.3 °F 37.4 °F 100% 29.95 in 9.0 mi NE 10.4 mph - N/A   Clear
5:58 AM 37.8 °F 30.7 °F 37.6 °F 99% 29.95 in 9.0 mi NE 10.4 mph - N/A   Clear
6:08 AM 37.4 °F 30.3 °F 37.4 °F 100% 29.96 in 9.0 mi NE 10.4 mph - N/A   Clear
6:15 AM 37.4 °F 30.3 °F 37.4 °F 100% 29.96 in 9.0 mi NE 10.4 mph - N/A   Partly Cloudy
6:20 AM 37.4 °F 30.3 °F 37.4 °F 100% 29.96 in 8.0 mi NE 10.4 mph - N/A   Scattered Clouds
6:25 AM 37.4 °F 30.3 °F 37.4 °F 100% 29.95 in 7.0 mi ENE 10.4 mph - N/A   Mostly Cloudy
6:30 AM 37.4 °F 29.8 °F 37.4 °F 100% 29.95 in 7.0 mi NE 11.5 mph - N/A   Mostly Cloudy
6:35 AM 37.4 °F 28.9 °F 37.4 °F 100% 29.94 in 7.0 mi NE 13.8 mph - N/A   Mostly Cloudy
6:45 AM 39.2 °F 30.2 °F 39.2 °F 100% 29.94 in 5.0 mi NE 17.3 mph - N/A   Overcast
6:50 AM 39.2 °F 30.2 °F 39.2 °F 100% 29.94 in 5.0 mi NE 17.3 mph - N/A   Overcast
6:55 AM 39.2 °F 30.2 °F 39.2 °F 100% 29.94 in 4.0 mi NE 17.3 mph - N/A   Overcast
6:58 AM 38.8 °F 30.4 °F 38.8 °F 100% 29.94 in 4.0 mi NE 15.0 mph - N/A   Overcast
7:58 AM 39.2 °F 33.0 °F 39.2 °F 100% 30.01 in 2.5 mi NE 9.2 mph - N/A   Overcast
8:03 AM 39.2 °F 33.6 °F 39.2 °F 100% 29.99 in 2.0 mi NE 8.1 mph - N/A   Overcast
8:43 AM 39.2 °F 33.0 °F 39.2 °F 100% 30.02 in 1.8 mi NNE 9.2 mph - N/A   Overcast
8:58 AM 39.2 °F 32.0 °F 39.2 °F 100% 30.02 in 1.5 mi NNE 11.5 mph - N/A   Overcast
9:03 AM 39.2 °F 31.6 °F 39.2 °F 100% 30.01 in 1.2 mi North 12.7 mph - N/A   Overcast
9:18 AM 39.2 °F 32.0 °F 39.2 °F 100% 30.01 in 1.0 mi North 11.5 mph - N/A   Mist
9:33 AM 39.2 °F 32.0 °F 39.2 °F 100% 30.02 in 1.2 mi NNE 11.5 mph - N/A   Overcast
9:48 AM 39.2 °F 31.6 °F 39.2 °F 100% 30.02 in 1.5 mi North 12.7 mph - N/A   Overcast
9:58 AM 39.6 °F 32.5 °F 39.6 °F 100% 30.03 in 1.8 mi NNE 11.5 mph - N/A   Overcast
10:13 AM 39.2 °F 31.6 °F 39.2 °F 100% 30.02 in 2.0 mi NNE 12.7 mph - N/A   Overcast
10:33 AM 41.0 °F 33.5 °F 41.0 °F 100% 30.01 in 2.5 mi NNE 13.8 mph - N/A   Overcast
10:43 AM 41.0 °F 33.5 °F 41.0 °F 100% 30.00 in 3.0 mi NNE 13.8 mph - N/A   Overcast
10:58 AM 41.4 °F 34.3 °F 41.4 °F 100% 30.02 in 4.0 mi NNE 12.7 mph - N/A   Overcast
11:23 AM 42.8 °F 37.0 °F 42.8 °F 100% 30.03 in 6.0 mi NNE 10.4 mph - N/A   Overcast
11:58 AM 42.8 °F 36.6 °F 42.6 °F 99% 30.02 in 5.0 mi NE 11.5 mph - N/A   Overcast
12:18 PM 42.8 °F 36.6 °F 42.8 °F 100% 30.00 in 8.0 mi NNE 11.5 mph - N/A   Overcast
12:58 PM 43.9 °F 36.8 °F 41.2 °F 90% 30.00 in 7.0 mi NNE 15.0 mph - N/A   Overcast
1:13 PM 44.6 °F 37.8 °F 41.0 °F 87% 29.97 in 8.0 mi NNE 15.0 mph - N/A   Overcast
1:58 PM 43.7 °F 35.7 °F 40.1 °F 87% 29.96 in 10.0 mi NNE 18.4 mph - N/A   Overcast
2:03 PM 44.6 °F 37.2 °F 41.0 °F 87% 29.95 in 10.0 mi NNE 17.3 mph - N/A   Overcast
2:58 PM 43.2 °F 35.6 °F 38.8 °F 85% 29.96 in 10.0 mi NNE 16.1 mph - N/A   Overcast
3:28 PM 42.8 °F 34.0 °F 39.2 °F 87% 29.95 in 10.0 mi NNE 20.7 mph 23.0 mph N/A   Overcast
3:58 PM 43.9 °F 35.7 °F 37.8 °F 79% 29.96 in 10.0 mi NE 19.6 mph - N/A   Overcast
4:58 PM 41.0 °F 31.9 °F 35.4 °F 81% 29.98 in 10.0 mi NE 19.6 mph - N/A   Overcast
5:18 PM 39.2 °F 28.7 °F 33.8 °F 81% 29.96 in 10.0 mi NNE 23.0 mph 27.6 mph N/A   Overcast
5:36 PM 37.4 °F 26.1 °F 33.8 °F 87% 29.97 in 8.0 mi NNE 24.2 mph 29.9 mph N/A   Overcast
5:51 PM 35.6 °F 23.0 °F 33.8 °F 93% 29.96 in 5.0 mi NNE 27.6 mph 32.2 mph N/A   Overcast
5:58 PM 34.9 °F 22.7 °F 34.2 °F 97% 29.99 in 5.0 mi NNE 24.2 mph 32.2 mph N/A   Overcast
6:23 PM 32.0 °F 18.6 °F 32.0 °F 100% 29.97 in 6.0 mi NNE 25.3 mph 31.1 mph N/A   Overcast
6:43 PM 32.0 °F 19.2 °F 32.0 °F 100% 30.00 in 8.0 mi NNE 23.0 mph 33.4 mph N/A   Overcast
6:53 PM 32.0 °F 18.9 °F 32.0 °F 100% 30.00 in 7.0 mi NNE 24.2 mph 28.8 mph N/A   Overcast
6:58 PM 32.2 °F 19.7 °F 31.8 °F 99% 30.03 in 7.0 mi NNE 21.9 mph 28.8 mph N/A   Overcast
7:03 PM 32.0 °F 18.9 °F 32.0 °F 100% 30.00 in 7.0 mi NNE 24.2 mph 28.8 mph N/A   Overcast
7:08 PM 32.0 °F 18.6 °F 32.0 °F 100% 30.01 in 7.0 mi NNE 25.3 mph 29.9 mph N/A   Overcast
7:18 PM 32.0 °F 18.6 °F 32.0 °F 100% 29.99 in 8.0 mi NNE 25.3 mph 32.2 mph N/A   Overcast
7:58 PM 32.0 °F 18.6 °F 32.0 °F 100% 30.06 in 10.0 mi North 25.3 mph 34.5 mph N/A   Overcast
8:58 PM 29.3 °F 15.0 °F 28.6 °F 97% 30.11 in 10.0 mi North 25.3 mph 38.0 mph N/A   Overcast
9:08 PM 28.4 °F 14.1 °F 28.4 °F 100% 30.09 in 10.0 mi North 24.2 mph 36.8 mph N/A   Overcast
9:23 PM 28.4 °F 13.5 °F 26.6 °F 93% 30.09 in 10.0 mi North 26.5 mph 33.4 mph N/A   Overcast
9:25 PM 28.4 °F 13.3 °F 26.6 °F 93% 30.09 in 10.0 mi North 27.6 mph 33.4 mph N/A   Overcast
9:50 PM 26.6 °F 10.8 °F 24.8 °F 93% 30.11 in 10.0 mi North 27.6 mph 36.8 mph N/A   Overcast
9:58 PM 26.8 °F 11.6 °F 24.6 °F 92% 30.15 in 10.0 mi North 25.3 mph 35.7 mph N/A   Overcast
10:10 PM 26.6 °F 10.3 °F 24.8 °F 93% 30.12 in 10.0 mi North 29.9 mph 38.0 mph N/A   Overcast
10:25 PM 26.6 °F 10.8 °F 24.8 °F 93% 30.12 in 10.0 mi North 27.6 mph 31.1 mph N/A   Overcast
10:41 PM 24.8 °F 8.7 °F 23.0 °F 93% 30.13 in 10.0 mi North 26.5 mph 34.5 mph N/A Rain Light Freezing Rain
10:50 PM 24.8 °F 8.7 °F 23.0 °F 93% 30.13 in 9.0 mi North 26.5 mph 33.4 mph N/A Rain Light Freezing Rain
10:58 PM 25.0 °F 8.4 °F 23.5 °F 94% 30.15 in 9.0 mi NNE 28.8 mph 32.2 mph 0.00 in Rain Light Freezing Rain
11:03 PM 24.8 °F 9.6 °F 23.0 °F 93% 30.13 in 8.0 mi North 23.0 mph 34.5 mph N/A Rain Light Freezing Rain
11:13 PM 24.8 °F 9.0 °F 23.0 °F 93% 30.14 in 8.0 mi North 25.3 mph 29.9 mph N/A Rain Light Freezing Rain
11:18 PM 24.8 °F 8.1 °F 23.0 °F 93% 30.14 in 7.0 mi North 28.8 mph 32.2 mph N/A Rain Light Freezing Rain
11:22 PM 23.0 °F 6.9 °F 23.0 °F 100% 30.15 in 6.0 mi North 24.2 mph 32.2 mph N/A Rain Light Freezing Rain
11:32 PM 23.0 °F 6.0 °F 23.0 °F 100% 30.14 in 6.0 mi North 27.6 mph 38.0 mph N/A Rain Light Freezing Rain
11:42 PM 23.0 °F 6.6 °F 23.0 °F 100% 30.15 in 6.0 mi North 25.3 mph 34.5 mph N/A Rain Light Freezing Rain
11:47 PM 23.0 °F 7.2 °F 23.0 °F 100% 30.15 in 5.0 mi North 23.0 mph 32.2 mph N/A Rain Light Freezing Rain
11:50 PM 23.0 °F 7.6 °F 23.0 °F 100% 30.15 in 5.0 mi North 21.9 mph 32.2 mph N/A Snow Light Snow
11:58 PM 22.8 °F 6.3 °F 22.3 °F 98% 30.18 in 5.0 mi North 25.3 mph 32.2 mph 0.00 in Snow Light Snow